Barrow: Past 24 Hour Conditions

 

Clyde Airport

12:00 AM EDT 19 April 2014
This table is a summary of hourly weather conditions for the past 24 hours.
Date / Time
(EDT)
Wind(knots) Conditions Visibility(km) Pressure(kPa) Air tempC) Relative humidity(%) Dew pointC) Wind Chill
19 April 2014
0:00 NW 23 Light Snow 2 100.3 -12 88 -14 -24
18 April 2014
23:00 NW 23 Light Snow 4 100.3 -12 86 -14 -24
22:00 NW 21 Light Snow 4 100.3 -12 87 -14 -23
21:00 NW 22 gust 27 Light Snow 2 100.3 -11 87 -13 -23
20:00 NW 22 Light Snow 2 100.2 -11 87 -13 -22
19:00 NW 26 Light Snow 3 100.2 -11 85 -13 -23
18:00 NW 25 Light Snow 3 100.1 -11 85 -13 -22
17:00 NW 23 Light Snow 1 100.1 -10 85 -12 -21
16:00 NW 26 Snow 0.6 100.0 -10 85 -12 -21
15:00 NW 26 gust 33 Light Snow 1 100.0 -10 85 -12 -21
14:00 NW 27 gust 32 Snow 0.8 99.9 -9 83 -12 -21
13:00 NW 31 gust 36 Snow 0.6 99.9 -10 86 -12 -22
12:00 WNW 27 gust 35 Snow 0.8 99.9 -10 85 -12 -21
11:00 WNW 26 gust 31 Snow 0.8 99.8 -10 85 -12 -22
10:00 NW 31 gust 36 Heavy Snow 0.2 99.8 -10 86 -12 -23
9:00 NW 33 gust 39 Heavy Snow 0 99.7 -10 89 -12 -23
8:00 NW 35 gust 43 Heavy Snow 0 99.6 -11 89 -12 -24
7:00 NW 34 gust 42 Heavy Snow 0 99.6 -11 90 -12 -24
6:00 NW 33 gust 38 Heavy Snow 0.2 99.6 -11 90 -12 -23
5:00 WNW 30 gust 37 Heavy Snow 0.2 99.5 -11 91 -12 -23
4:00 WNW 23 gust 32 Snow 0.6 99.5 -11 89 -13 -22
3:00 W 16 Light Snow 2 99.4 -12 88 -13 -22
2:00 W 16 Light Snow 2 99.3 -11 89 -13 -21
1:00 W 14 Light Snow 2 99.3 -12 87 -13 -21
0:00 W 14 Light Snow 2 99.3 -12 85 -14 -21
 
Map of Arctic - Eastern Arctic marine weather areas Baker Lake Airport Chesterfield Inlet Airport Coral Harbour Airport Gjoa Haven Airport Kugaaruk Airport Rankin Inlet Airport Shepherd Bay Airport Whale Cove Airport Arctic Bay Brevoort Island Qikiqtarjuaq Airport Cape Dorset Airport Cape Dyer Cape Hooper Clyde Airport Grise Fiord Airport Hall Beach Airport Igloolik Airport Iqaluit Airport Longstaff Bluff Pangnirtung Airport Pond Inlet Airport Repulse Bay Airport Resolute Airport Resolution Island Rowley Island Airport Taloyoak Airport Wager Bay Akulivik Airport Ivujivik Airport Puvirnituq Airport Kangiqsujuaq Airport Kangirsuk Airport Quaqtaq Airport Tasiujaq Airport Cape Kakkiviak Cape Kiglapait Nain Airport Saglek Cape Mercy Kimmirut Airport Aupaluk Airport Salluit Airport Kangiqsualujjuaq Airport Fort Ross
Legend: buoyBuoy land stationLand Station